Home > Time Zones > World Clock > Weather > India > Unnao > Past weeks

Flag for India Weather past 2 weeks in Unnao, Uttar Pradesh, India

Now
91 °F

Haze.


Feels Like: 100 °F
Forecast: 75 / 95 °F
Wind: 9 mph from West

Location: Lucknow / Amausi

Current Time: Sep 23, 2014 at 12:12:51 PM

Latest Report: Sep 23, 2014 at 11:00 AM


Visibility: 3 mi

Pressure: 29.68 "Hg

Humidity: 56%

Dew point: 73 °F

Location of UnnaoLocation

Historic Weather in Unnao — Graph

°F

Unnao temperature yesterday

Maximum temperature yesterday: 97 °F (at 12:30 PM)
Minimum temperature yesterday: 75 °F (at 5:30 AM)
Average temperature yesterday: 87 °F

Past Weeks' High & Low Weather Summary

 TemperatureHumidityPressure
High102 °F (Sep 19, 11:00 AM)100% (Sep 9, 10:00 PM)29.74 "Hg (Sep 9, 10:00 PM)
Low75 °F (Sep 12, 10:30 AM)49% (Sep 22, 2:30 PM)29.53 "Hg (Sep 9, 3:30 PM)
Average87 °F80%29.63 "Hg
* Reported Sep 8 10:30 AM — Sep 23 11:00 AM, Unnao, Weather by CustomWeather, © 2014

Note: Actual official high and low records may vary slightly from our data, if they occured in-between our weather recording intervals... More about our weather records

Advertising

Unnao weather history for previous 24 hours

 ConditionsComfort  
Time TempWeatherWind HumidityBarometerVisibility
11:00 AM
Sep 23
91 °FHaze.9 mph56%29.68 "Hg3 mi
10:30 AM91 °FHaze.6 mph59%29.68 "Hg3 mi
9:30 AM88 °FHaze.6 mph70%29.68 "Hg2 mi
9:00 AM88 °FHaze.6 mph70%29.68 "Hg2 mi
8:30 AM86 °FHaze.6 mph75%29.68 "Hg2 mi
8:00 AM84 °FHaze.5 mph79%29.68 "Hg2 mi
7:00 AM77 °FHaze.3 mph89%29.65 "Hg2 mi
6:30 AM77 °FFog.3 mph89%29.65 "Hg2 mi
6:00 AM75 °FFog.3 mph89%29.65 "Hg2 mi
5:00 AM75 °FFog.2 mph89%29.65 "Hg2 mi
4:00 AM77 °FFog.2 mph83%29.62 "Hg2 mi
3:00 AM77 °FFog.2 mph83%29.62 "Hg2 mi
2:00 AM77 °FFog.2 mph83%29.65 "Hg2 mi
12:00 AM77 °FFog.3 mph83%29.68 "Hg2 mi
10:00 PM
Sep 22
79 °FHaze.3 mph89%29.68 "Hg2 mi
9:00 PM82 °FHaze.3 mph79%29.68 "Hg2 mi
8:30 PM82 °FHaze.3 mph79%29.68 "Hg2 mi
8:00 PM82 °FHaze.3 mph79%29.68 "Hg2 mi
7:30 PM84 °FHaze.3 mph74%29.65 "Hg2 mi
7:00 PM88 °FHaze.No wind66%29.65 "Hg2 mi
6:30 PM91 °FHaze.No wind59%29.62 "Hg2 mi
6:00 PM91 °FHaze.No wind56%29.62 "Hg2 mi
5:00 PM91 °FHaze.No wind56%29.62 "Hg3 mi
4:30 PM93 °FHaze.2 mph53%29.62 "Hg3 mi
4:00 PM95 °FHaze.5 mph50%29.62 "Hg3 mi
3:30 PM95 °FHaze.6 mph50%29.62 "Hg3 mi
3:00 PM93 °FHaze.6 mph49%29.62 "Hg3 mi
2:30 PM93 °FHaze.7 mph49%29.65 "Hg3 mi
2:00 PM97 °FScattered clouds.6 mph53%29.65 "Hg3 mi
1:30 PM97 °FScattered clouds.7 mph53%29.65 "Hg3 mi
1:00 PM97 °FHaze.9 mph53%29.68 "Hg3 mi
12:30 PM97 °FHaze.9 mph53%29.68 "Hg3 mi
Weather by CustomWeather, © 2014

See weather overviewHow to use our weather pages